Date,TemperatureHighF,TemperatureAvgF,TemperatureLowF,DewpointHighF,DewpointAvgF,DewpointLowF,HumidityHigh,HumidityAvg,HumidityLow,PressureMaxIn,PressureMinIn,WindSpeedMaxMPH,WindSpeedAvgMPH,GustSpeedMaxMPH,PrecipitationSumIn
2013-1-1,14.0,6.1,-5.0,8.0,0.9,-10.0,85,79,70,0.00,40.00,4,1,10,0.00
2013-1-2,13.0,3.8,-6.0,5.0,-1.8,-11.0,84,77,63,0.00,40.00,2,0,5,0.00
2013-1-3,11.0,-3.2,-17.0,0.0,-9.7,-22.0,84,74,57,0.00,40.00,2,0,4,0.00
2013-1-4,11.0,-5.9,-18.0,1.0,-12.2,-23.0,82,74,62,30.29,30.29,2,0,5,0.00
2013-1-5,-10.0,-13.3,-15.0,-14.0,-18.2,-20.0,81,78,77,0.00,40.00,1,0,3,0.00
2013-1-6,6.0,-3.6,-12.0,0.0,-8.5,-17.0,82,79,74,0.00,40.00,2,0,3,0.00
2013-1-17,15.0,6.5,-7.0,4.0,-0.9,-12.0,82,71,60,0.00,40.00,2,0,3,0.00
2013-1-18,18.0,2.9,-11.0,6.0,-3.3,-16.0,86,75,59,0.00,40.00,3,0,9,0.00
2013-1-19,19.0,5.3,-10.0,8.0,-0.8,-15.0,86,76,62,0.00,40.00,3,0,5,0.00
2013-1-20,25.0,7.7,-7.0,11.0,0.5,-11.0,92,73,52,0.00,40.00,3,0,6,0.00
2013-1-21,1.0,-2.5,-5.0,-3.0,-6.5,-9.0,84,82,80,30.37,30.37,0,0,2,0.00
2013-1-23,18.0,8.7,-7.0,9.0,2.2,-12.0,95,75,63,0.00,40.00,2,0,4,0.00
2013-1-24,36.0,25.8,4.0,32.0,22.2,0.0,93,86,76,0.00,40.00,7,2,16,0.01
2013-1-25,39.0,35.7,31.0,29.0,27.9,27.0,85,73,62,0.00,40.00,4,1,10,0.01
2013-1-26,34.0,33.5,33.0,31.0,29.3,28.0,89,84,78,0.00,40.00,2,1,5,0.00
2013-1-27,36.0,29.3,23.0,32.0,24.7,15.0,94,83,68,0.00,40.00,10,2,28,0.15
2013-1-28,25.0,19.8,15.0,17.0,11.7,6.0,84,71,51,0.00,40.00,5,1,18,0.01
2013-1-29,24.0,17.9,15.0,18.0,11.0,7.0,88,75,49,0.00,40.00,6,1,11,0.02
2013-1-30,34.0,31.0,17.0,26.0,22.6,10.0,83,71,60,29.95,29.95,11,6,32,0.03
2013-1-31,35.0,31.7,30.0,26.0,23.0,19.0,86,70,59,0.00,40.00,7,3,17,0.03
2013-2-1,37.0,32.6,28.0,27.0,22.9,20.0,87,68,53,0.00,40.00,12,3,26,0.05
2013-2-2,29.0,20.7,13.0,20.0,14.6,9.0,83,77,69,0.00,40.00,5,1,17,0.05
2013-2-3,29.0,20.7,11.0,19.0,14.8,7.0,87,78,64,30.27,30.27,4,1,7,0.01
2013-2-4,38.0,23.2,8.0,23.0,15.4,5.0,87,73,54,0.00,40.00,6,1,16,0.00
2013-2-5,43.0,34.6,30.0,25.0,21.4,18.0,80,60,38,0.00,40.00,6,2,16,0.00
2013-2-6,37.0,29.9,21.0,21.0,18.1,14.0,73,61,50,0.00,40.00,7,2,13,0.00
2013-2-7,30.0,16.2,3.0,14.0,8.5,-1.0,85,73,51,0.00,40.00,2,0,5,0.00
2013-2-8,30.0,19.4,9.0,22.0,11.0,4.0,87,71,45,0.00,40.00,5,1,9,0.00
2013-2-9,29.0,27.1,26.0,21.0,15.7,13.0,78,62,57,0.00,40.00,7,4,16,0.00
2013-2-11,16.0,5.5,-8.0,1.0,-4.4,-13.0,79,64,49,0.00,40.00,3,0,6,0.00
2013-2-12,25.0,12.5,1.0,19.0,6.7,-5.0,83,77,67,0.00,40.00,6,1,15,0.01
2013-2-13,32.0,27.3,23.0,24.0,21.0,17.0,85,77,69,30.10,30.08,9,3,22,0.01
2013-2-14,28.0,27.2,27.0,24.0,24.0,24.0,90,88,83,30.08,30.08,5,4,17,0.00
2013-2-19,28.0,21.3,16.0,14.0,11.6,9.0,77,66,52,0.00,40.00,0,0,2,0.00
2013-2-20,15.0,11.4,9.0,9.0,6.8,5.0,85,82,77,0.00,40.00,1,0,3,0.00
2013-2-22,28.0,20.8,11.0,18.0,13.5,7.0,86,74,51,0.00,40.00,4,1,16,0.02
2013-2-23,22.0,22.0,22.0,19.0,18.4,18.0,88,86,84,29.85,29.85,3,1,10,0.02
2013-2-25,14.0,5.5,1.0,3.0,-1.0,-4.0,80,74,62,0.00,40.00,2,0,5,0.03
2013-2-26,28.0,17.3,5.0,14.0,7.0,-1.0,86,66,41,0.00,40.00,5,1,11,0.01
2013-2-27,31.0,13.2,-3.0,13.0,4.2,-8.0,92,68,46,0.00,40.00,4,1,9,0.00
2013-2-28,26.0,16.0,4.0,23.0,11.5,-1.0,92,82,75,0.00,40.00,3,1,9,0.03
2013-3-1,37.0,27.6,23.0,28.0,23.0,20.0,90,83,69,0.00,40.00,3,1,6,0.01
2013-3-2,47.0,37.3,25.0,30.0,26.4,21.0,87,66,48,0.00,40.00,4,1,10,0.01
2013-3-3,39.0,35.1,33.0,31.0,30.2,26.0,92,83,62,0.00,40.00,4,2,13,0.03
2013-3-4,27.0,20.3,8.0,16.0,6.7,2.0,86,57,40,0.00,40.00,6,1,13,0.01
2013-3-5,8.0,4.3,1.0,2.0,-1.4,-4.0,80,77,75,0.00,40.00,0,0,2,0.01
2013-3-6,34.0,24.2,8.0,30.0,18.7,4.0,90,80,57,0.00,40.00,5,1,17,0.03
2013-3-7,37.0,27.9,17.0,27.0,20.2,14.0,91,74,41,0.00,40.00,5,1,9,0.04
2013-3-8,26.0,25.1,25.0,24.0,22.8,22.0,91,91,89,0.00,40.00,2,0,4,0.03
2013-3-10,43.0,28.2,12.0,20.0,13.4,6.0,77,55,35,0.00,40.00,5,2,11,0.00
2013-3-11,41.0,34.3,28.0,29.0,19.3,11.0,87,55,35,0.00,40.00,8,2,20,0.03
2013-3-12,46.0,31.6,14.0,29.0,18.9,6.0,72,60,45,30.24,30.24,5,2,12,0.01
2013-3-13,55.0,42.5,34.0,32.0,28.6,25.0,80,60,32,30.32,30.27,6,1,11,0.00
2013-3-14,37.0,31.7,28.0,28.0,26.0,24.0,86,80,69,0.00,40.00,1,0,3,0.00
2013-3-15,52.0,45.2,38.0,28.0,25.5,22.0,63,47,31,0.00,40.00,8,2,17,0.00
2013-3-17,33.0,26.5,20.0,24.0,12.3,4.0,86,56,37,0.00,40.00,18,5,45,0.00
2013-3-18,31.0,23.9,13.0,23.0,12.8,7.0,86,63,47,0.00,40.00,7,2,23,0.03
2013-3-19,42.0,27.5,12.0,12.0,6.2,-2.0,75,45,17,30.19,30.19,7,1,16,0.02
2013-3-20,21.0,19.0,17.0,11.0,7.3,5.0,69,60,52,0.00,40.00,1,0,4,0.02
2013-3-21,29.0,25.1,22.0,23.0,19.0,14.0,83,77,69,0.00,40.00,7,3,15,0.24
2013-3-22,22.0,19.9,18.0,16.0,15.1,14.0,87,81,73,0.00,40.00,2,0,7,0.14
2013-3-28,55.0,43.6,28.0,30.0,27.6,23.0,80,54,35,0.00,40.00,4,1,6,0.00
2013-3-29,42.0,34.7,30.0,35.0,31.1,26.0,94,87,74,0.00,40.00,6,0,14,0.28
2013-3-30,52.0,38.4,29.0,37.0,27.1,-99.9,100,72,30,0.00,40.00,7,1,15,0.12
2013-3-31,56.0,36.8,21.0,30.0,23.1,18.0,88,62,28,0.00,40.00,4,1,7,0.01
2013-4-1,58.0,40.3,23.0,28.0,24.7,20.0,89,59,25,0.00,40.00,4,1,10,0.00
2013-4-2,59.0,43.1,29.0,28.0,23.8,16.0,82,51,19,30.10,30.10,6,2,10,0.00
2013-4-3,56.0,35.7,28.0,30.0,23.4,21.0,77,63,35,30.16,30.16,5,1,8,0.00
2013-4-4,61.0,45.6,32.0,35.0,30.7,27.0,84,59,32,0.00,40.00,7,2,21,0.00
2013-4-5,50.0,46.0,43.0,37.0,33.5,31.0,77,62,50,0.00,40.00,4,1,11,0.00
2013-4-8,39.0,31.9,27.0,33.0,24.6,10.0,90,75,50,0.00,40.00,17,9,32,0.08
2013-4-9,38.0,30.1,22.0,17.0,11.3,5.0,57,45,35,30.09,30.09,14,7,32,0.01
2013-4-10,47.0,32.7,18.0,31.0,18.2,12.0,77,57,37,30.10,30.09,10,2,19,0.00
2013-4-11,51.0,42.3,36.0,33.0,27.4,22.0,85,59,33,0.00,40.00,10,2,18,0.02
2013-4-12,52.0,39.7,29.0,30.0,21.3,10.0,91,54,18,29.84,29.84,10,2,18,0.01
2013-4-13,41.0,38.8,33.0,30.0,24.3,21.0,89,58,45,29.79,29.74,3,2,15,0.00
2013-4-17,35.0,28.4,20.0,14.0,9.2,4.0,54,44,32,0.00,40.00,7,4,16,0.01
2013-4-18,23.0,17.9,14.0,7.0,5.9,4.0,71,59,46,0.00,40.00,3,0,8,0.00
2013-4-19,46.0,37.3,28.0,33.0,25.8,17.0,90,64,43,29.98,29.98,7,2,14,0.04
2013-4-20,47.0,37.2,33.0,36.0,32.0,28.0,93,82,49,30.06,29.94,7,2,17,0.20
2013-4-21,47.0,39.9,30.0,34.0,28.0,21.0,89,65,38,0.00,40.00,12,2,20,0.26
2013-4-22,42.0,34.9,31.0,30.0,26.3,22.0,91,72,46,0.00,40.00,0,0,0,0.13
2013-4-23,41.0,29.5,12.0,16.0,10.3,6.0,79,47,26,0.00,40.00,9,2,18,0.02
2013-4-24,31.0,24.9,20.0,18.0,15.4,13.0,79,67,46,0.00,40.00,2,0,4,0.02
2013-4-27,66.0,50.7,28.0,29.0,25.0,21.0,77,41,20,0.00,40.00,10,2,22,0.00
2013-4-28,59.0,51.4,40.0,29.0,25.1,21.0,52,36,24,30.09,30.01,12,4,32,0.00
2013-4-29,55.0,46.1,39.0,31.0,23.5,20.0,48,41,33,0.00,40.00,7,2,21,0.00
2013-4-30,40.0,33.0,29.0,28.0,23.2,14.0,92,70,34,0.00,40.00,5,1,17,0.00
2013-5-1,34.0,28.3,26.0,27.0,24.8,23.0,91,87,74,0.00,40.00,3,0,6,0.17
2013-5-3,59.0,46.7,27.0,27.0,21.2,17.0,74,40,21,0.00,40.00,5,2,12,0.00
2013-5-4,47.0,44.5,41.0,28.0,26.6,25.0,58,50,43,0.00,40.00,6,3,12,0.00
2013-5-6,64.0,51.0,36.0,42.0,36.5,26.0,95,63,24,0.00,40.00,11,2,19,0.09
2013-5-7,64.0,43.2,33.0,37.0,33.6,29.0,93,74,29,0.00,40.00,7,1,12,0.06
2013-5-9,66.0,55.6,35.0,35.0,32.2,26.0,87,44,22,0.00,40.00,9,2,16,0.00
2013-5-10,69.0,50.5,34.0,37.0,28.7,-99.9,85,52,18,0.00,40.00,6,2,13,0.00
2013-5-11,71.0,57.0,33.0,38.0,31.4,-99.9,87,44,21,30.45,30.45,6,2,19,0.00
2013-5-12,50.0,45.4,44.0,38.0,35.2,33.0,72,67,58,0.00,40.00,2,0,3,0.00
2013-5-14,76.0,66.1,46.0,36.0,32.2,26.0,64,30,19,0.00,40.00,11,3,24,0.00
2013-5-15,70.0,53.4,45.0,39.0,34.5,32.0,68,50,27,0.00,40.00,4,1,11,0.00
2013-5-16,64.0,50.0,47.0,46.0,26.0,-99.9,91,67,38,29.91,29.91,7,1,23,0.15
2013-5-17,53.0,48.2,45.0,48.0,39.6,-99.9,94,81,63,0.00,40.00,6,1,15,0.30
2013-5-18,50.0,44.6,41.0,43.0,40.1,37.0,92,84,62,0.00,40.00,5,1,13,0.23
2013-5-19,52.0,44.9,39.0,42.0,38.4,36.0,91,79,58,0.00,40.00,5,1,11,0.05
2013-5-20,61.0,48.1,40.0,43.0,38.9,34.0,100,73,40,0.00,40.00,4,1,11,0.06
2013-5-21,65.0,51.8,33.0,39.0,35.6,31.0,93,58,32,0.00,40.00,3,1,10,0.01
2013-5-22,68.0,54.4,39.0,47.0,38.5,31.0,91,57,31,29.78,29.78,5,1,14,0.08
2013-5-23,68.0,50.2,39.0,36.0,30.7,25.0,70,49,26,0.00,40.00,15,2,26,0.01
2013-5-24,64.0,49.0,33.0,31.0,24.6,16.0,76,43,20,0.00,40.00,8,3,22,0.00
2013-5-25,39.0,34.2,32.0,30.0,27.1,25.0,81,75,64,0.00,40.00,0,0,2,0.00
2013-5-28,55.0,49.7,43.0,42.0,39.5,36.0,90,69,48,0.00,40.00,5,1,14,0.12
2013-5-29,51.0,45.4,43.0,41.0,39.2,36.0,89,80,62,0.00,40.00,3,1,12,0.11
2013-5-30,45.0,42.7,42.0,36.0,34.7,33.0,77,73,65,0.00,40.00,2,0,13,0.04
2013-5-31,57.0,48.7,35.0,36.0,29.6,25.0,92,51,30,0.00,40.00,10,2,17,0.11
2013-6-1,42.0,36.7,33.0,32.0,31.0,30.0,88,80,64,0.00,40.00,0,0,2,0.01
2013-6-3,62.0,52.8,43.0,35.0,29.5,26.0,74,42,27,0.00,40.00,7,2,20,0.00
2013-6-4,64.0,50.1,36.0,38.0,33.3,27.0,89,57,25,0.00,40.00,7,1,16,0.00
2013-6-5,71.0,55.6,35.0,40.0,35.5,32.0,89,52,26,0.00,40.00,5,1,15,0.00
2013-6-6,74.0,60.1,38.0,43.0,38.9,34.0,87,49,29,0.00,40.00,4,1,8,0.00
2013-6-13,51.0,47.2,45.0,40.0,38.4,35.0,78,71,57,0.00,40.00,15,3,33,0.04
2013-6-14,62.0,49.7,37.0,39.0,30.3,22.0,91,53,24,0.00,40.00,8,2,16,0.04
2013-6-15,74.0,52.2,31.0,41.0,30.2,24.0,89,51,17,0.00,40.00,6,1,14,0.00
2013-6-16,47.0,41.2,37.0,38.0,35.1,33.0,88,79,70,0.00,40.00,1,0,2,0.00
2013-6-17,80.0,65.9,40.0,42.0,38.1,31.0,90,41,18,0.00,40.00,5,1,12,0.00
2013-6-18,80.0,61.7,41.0,47.0,39.6,33.0,87,50,20,0.00,40.00,6,1,17,0.00
2013-6-19,76.0,57.1,43.0,45.0,37.4,27.0,81,51,21,0.00,40.00,19,2,33,0.00
2013-6-20,63.0,46.5,32.0,32.0,27.1,21.0,82,51,20,0.00,40.00,7,1,17,0.00
2013-6-21,67.0,64.0,58.0,35.0,32.2,30.0,42,31,27,0.00,40.00,3,2,13,0.00
2013-6-23,75.0,60.4,33.0,43.0,33.4,29.0,88,42,20,0.00,40.00,7,2,18,0.00
2013-6-24,79.0,58.4,40.0,47.0,40.0,34.0,88,56,23,0.00,40.00,7,1,20,0.00
2013-6-25,69.0,58.5,50.0,53.0,46.2,41.0,90,67,39,0.00,40.00,5,1,15,0.04
2013-6-26,77.0,62.2,47.0,53.0,47.8,44.0,95,65,31,0.00,40.00,9,1,21,0.03
2013-6-27,87.0,65.4,46.0,54.0,47.7,43.0,92,60,22,0.00,40.00,7,1,19,0.01
2013-6-28,89.0,68.8,46.0,53.0,44.9,35.0,88,51,16,0.00,40.00,4,1,10,0.00
2013-6-29,84.0,67.2,47.0,54.0,46.2,41.0,86,51,24,0.00,40.00,9,1,23,0.00
2013-6-30,89.0,70.7,53.0,54.0,49.3,36.0,85,52,16,0.00,40.00,4,1,10,0.00
2013-7-1,88.0,68.2,50.0,55.0,49.4,45.0,87,55,25,0.00,40.00,3,0,6,0.00
2013-7-2,90.0,69.1,52.0,59.0,49.6,38.0,88,55,17,0.00,40.00,4,0,14,0.00
2013-7-3,87.0,73.3,55.0,56.0,49.6,45.0,76,47,26,0.00,40.00,4,1,13,0.00
2013-7-4,85.0,72.5,61.0,57.0,52.0,48.0,73,50,32,0.00,40.00,9,1,17,0.00
2013-7-5,83.0,67.0,56.0,55.0,49.7,41.0,87,57,29,0.00,40.00,7,1,18,0.00
2013-7-6,73.0,56.1,47.0,55.0,47.9,43.0,91,75,47,0.00,40.00,4,0,9,0.37
2013-7-7,81.0,61.3,45.0,57.0,49.9,43.0,95,70,34,0.00,40.00,6,1,22,0.07
2013-7-8,82.0,61.8,46.0,56.0,48.0,-99.9,95,67,32,0.00,40.00,6,1,17,0.06
2013-7-9,85.0,66.7,49.0,52.0,44.2,34.0,84,51,17,0.00,40.00,6,1,19,0.00
2013-7-10,83.0,57.0,45.0,54.0,42.5,-99.9,91,66,32,0.00,40.00,2,0,5,0.00
2013-7-11,57.0,51.3,49.0,53.0,47.8,46.0,89,88,85,0.00,40.00,0,0,1,0.00
2013-7-12,77.0,63.4,50.0,53.0,47.8,41.0,93,61,31,0.00,40.00,4,1,10,0.03
2013-7-13,55.0,49.2,46.0,47.0,44.8,43.0,90,85,74,0.00,40.00,0,0,2,0.00
2013-7-14,83.0,65.8,46.0,54.0,48.6,41.0,93,59,23,0.00,40.00,4,1,15,0.01
2013-7-15,83.0,60.4,45.0,54.0,47.2,40.0,93,67,22,0.00,40.00,3,0,9,0.01
2013-7-16,75.0,61.3,52.0,61.0,51.6,47.0,86,71,51,0.00,40.00,5,0,11,0.01
2013-7-17,84.0,66.1,56.0,60.0,56.1,54.0,94,74,40,0.00,40.00,4,0,7,0.01
2013-7-18,86.0,64.0,51.0,56.0,50.0,38.0,92,68,18,0.00,40.00,7,1,17,0.00
2013-7-19,88.0,62.1,46.0,50.0,44.3,35.0,91,61,16,0.00,40.00,5,1,14,0.00
2013-7-20,85.0,63.1,45.0,50.0,40.5,-99.9,89,53,14,0.00,40.00,5,1,14,0.00
2013-7-21,86.0,65.9,45.0,49.0,41.2,32.0,86,50,15,0.00,40.00,6,1,15,0.00
2013-7-22,87.0,56.8,42.0,42.0,36.8,26.0,82,57,11,0.00,40.00,6,1,15,0.00
2013-7-23,86.0,65.8,44.0,43.0,36.1,29.0,72,39,13,0.00,40.00,8,1,14,0.00
2013-7-24,53.0,50.7,48.0,45.0,43.8,42.0,83,78,69,0.00,40.00,0,0,1,0.00
2013-7-25,85.0,67.1,48.0,47.0,42.7,37.0,76,45,21,0.00,40.00,4,0,10,0.00
2013-7-26,87.0,64.4,48.0,50.0,45.2,38.0,85,57,19,0.00,40.00,3,0,13,0.00
2013-7-27,69.0,60.0,50.0,55.0,50.3,43.0,89,72,44,0.00,40.00,3,0,9,0.05
2013-7-28,75.0,59.8,45.0,55.0,48.6,43.0,95,71,39,0.00,40.00,5,1,12,0.04
2013-7-29,71.0,52.0,42.0,53.0,45.9,40.0,95,82,52,0.00,40.00,2,1,6,0.02
2013-7-30,75.0,63.9,46.0,56.0,47.9,44.0,96,59,36,0.00,40.00,6,1,20,0.10
2013-7-31,80.0,59.5,44.0,53.0,47.5,42.0,93,68,33,0.00,40.00,6,1,13,0.03
2013-8-1,86.0,67.0,49.0,54.0,46.7,36.0,88,54,20,0.00,40.00,5,1,14,0.00
2013-8-2,79.0,65.2,49.0,44.0,37.2,29.0,70,39,19,0.00,40.00,7,1,22,0.00
2013-8-3,82.0,61.5,40.0,47.0,40.1,35.0,90,53,19,0.00,40.00,5,1,12,0.00
2013-8-4,85.0,63.2,41.0,46.0,39.9,34.0,88,52,17,0.00,40.00,5,1,17,0.00
2013-8-5,85.0,60.4,41.0,46.0,37.6,30.0,83,50,14,0.00,40.00,5,1,15,0.01
2013-8-6,83.0,60.9,45.0,45.0,38.2,35.0,72,47,18,0.00,40.00,5,1,15,0.01
2013-8-7,77.0,57.8,43.0,47.0,41.7,38.0,87,60,28,0.00,40.00,2,0,5,0.00
2013-8-8,82.0,61.3,41.0,47.0,41.1,37.0,86,51,25,0.00,40.00,4,1,12,0.03
2013-8-9,74.0,60.4,53.0,50.0,45.9,39.0,83,62,37,0.00,40.00,3,0,11,0.03
2013-8-10,78.0,59.5,47.0,48.0,44.9,41.0,88,63,28,0.00,40.00,2,0,6,0.00
2013-8-11,50.0,46.9,45.0,44.0,42.4,41.0,89,84,80,0.00,40.00,0,0,1,0.00
2013-8-12,76.0,56.2,43.0,48.0,43.0,40.0,89,66,30,0.00,40.00,1,0,4,0.00
2013-8-13,76.0,57.2,42.0,46.0,40.4,-99.9,92,60,34,0.00,40.00,3,0,13,0.00
2013-8-14,76.0,51.2,42.0,48.0,36.1,-99.9,91,72,35,0.00,40.00,1,0,5,0.00
2013-8-15,84.0,44.1,41.0,43.0,-0.7,-99.9,89,45,17,0.00,40.00,2,0,6,0.00
2013-8-16,85.0,53.7,40.0,41.0,26.2,-99.9,86,49,18,0.00,40.00,1,0,6,0.00
2013-8-17,79.0,64.1,42.0,41.0,38.8,36.0,85,43,25,0.00,40.00,2,0,4,0.00
2013-8-18,87.0,70.0,47.0,48.0,41.7,37.0,79,42,17,0.00,40.00,7,1,21,0.00
2013-8-19,87.0,58.8,44.0,45.0,23.4,-99.9,83,46,14,0.00,40.00,8,1,19,0.00
2013-8-20,84.0,64.0,51.0,52.0,41.9,-99.9,75,52,19,0.00,40.00,3,0,8,0.00
2013-8-21,75.0,59.9,51.0,55.0,46.7,41.0,79,63,42,0.00,40.00,3,0,11,0.00
2013-8-22,61.0,57.7,53.0,52.0,50.8,50.0,88,78,68,0.00,40.00,1,0,5,0.00
2013-8-23,80.0,64.6,50.0,54.0,50.1,46.0,92,64,30,0.00,40.00,7,1,30,0.20
2013-8-24,77.0,63.2,50.0,55.0,51.3,47.0,95,68,39,0.00,40.00,3,1,12,0.25
2013-8-25,79.0,63.5,50.0,52.0,48.6,43.0,92,63,29,0.00,40.00,4,1,12,0.01
2013-8-26,75.0,62.1,52.0,54.0,50.5,48.0,87,68,44,0.00,40.00,4,1,21,0.00
2013-8-27,73.0,56.2,49.0,54.0,49.8,46.0,93,81,49,0.00,40.00,2,0,5,0.00
2013-8-28,75.0,68.9,59.0,59.0,56.5,55.0,86,66,51,0.00,40.00,2,1,6,0.32
2013-8-29,80.0,61.9,47.0,59.0,51.8,45.0,95,73,40,0.00,40.00,2,0,6,0.05
2013-8-30,83.0,61.0,46.0,56.0,48.4,41.0,96,70,24,0.00,40.00,6,1,19,0.01
2013-8-31,80.0,54.9,43.0,48.0,40.0,-99.9,90,66,19,0.00,40.00,2,0,5,0.01
2013-9-1,82.0,53.5,39.0,47.0,39.9,36.0,92,66,19,0.00,40.00,1,0,3,0.00
2013-9-2,61.0,55.7,51.0,57.0,51.4,44.0,95,86,70,0.00,40.00,1,0,8,0.33
2013-9-3,79.0,63.4,55.0,61.0,56.6,54.0,96,81,44,0.00,40.00,3,0,11,0.10
2013-9-4,81.0,62.6,51.0,58.0,53.9,49.0,95,77,36,0.00,40.00,3,0,7,0.09
2013-9-5,84.0,64.9,53.0,57.0,53.0,50.0,94,70,32,0.00,40.00,3,0,13,0.00
2013-9-6,81.0,60.3,48.0,56.0,51.9,46.0,94,77,36,0.00,40.00,3,0,7,0.54
2013-9-7,69.0,58.2,54.0,58.0,52.0,-99.9,96,83,46,0.00,40.00,4,0,12,0.25
2013-9-8,70.0,56.1,49.0,56.0,49.6,46.0,95,81,51,0.00,40.00,5,0,23,0.05
2013-9-9,70.0,53.9,45.0,51.0,46.4,43.0,96,79,43,0.00,40.00,4,0,9,0.05
2013-9-10,75.0,54.4,42.0,52.0,44.5,40.0,94,73,35,0.00,40.00,2,0,4,0.01
2013-9-11,72.0,56.2,43.0,56.0,47.7,41.0,94,76,40,0.00,40.00,5,1,12,0.06
2013-9-12,67.0,60.3,53.0,52.0,48.4,45.0,92,66,53,0.00,40.00,6,0,14,0.08
2013-9-13,73.0,55.9,47.0,53.0,49.2,45.0,96,80,45,0.00,40.00,0,0,0,0.01
2013-9-14,69.0,58.2,50.0,52.0,46.8,-99.9,93,70,47,0.00,40.00,0,0,0,0.00
2013-9-15,68.0,56.3,49.0,55.0,51.0,47.0,94,83,56,0.00,40.00,0,0,0,0.04
2013-9-16,76.0,58.8,45.0,54.0,49.0,44.0,96,74,38,0.00,40.00,0,0,0,0.02
2013-9-17,64.0,52.4,46.0,54.0,48.1,44.0,94,86,58,0.00,40.00,5,0,15,0.55
2013-9-18,47.0,45.3,40.0,46.0,42.2,35.0,95,89,76,0.00,40.00,3,0,22,0.57
2013-9-19,59.0,43.7,34.0,40.0,35.1,32.0,94,75,38,0.00,40.00,3,0,6,0.02
2013-9-20,71.0,44.3,31.0,41.0,33.4,29.0,95,73,22,0.00,40.00,3,0,6,0.01
2013-9-21,75.0,50.2,33.0,42.0,33.6,-99.9,94,64,23,0.00,40.00,4,1,18,0.01
2013-9-22,67.0,53.7,46.0,46.0,40.2,32.0,88,63,27,0.00,40.00,4,1,18,0.00
2013-9-23,60.0,48.7,39.0,37.0,34.2,31.0,84,60,35,0.00,40.00,7,1,20,0.00
2013-9-24,69.0,49.1,34.0,39.0,34.2,30.0,90,62,26,0.00,40.00,7,1,26,0.00
2013-9-25,49.0,40.7,31.0,42.0,37.8,29.0,93,89,70,0.00,40.00,5,0,15,1.01
2013-9-26,43.0,36.2,31.0,37.0,33.1,29.0,100,89,71,0.00,40.00,3,0,7,0.17
2013-9-27,44.0,37.5,34.0,34.0,31.4,27.0,94,80,56,0.00,40.00,4,1,16,0.04
2013-9-28,52.0,42.1,38.0,37.0,31.1,-99.9,84,67,52,0.00,40.00,5,1,16,0.01
2013-9-29,54.0,46.4,37.0,41.0,34.5,31.0,85,65,46,0.00,40.00,7,1,20,0.01
2013-9-30,61.0,51.7,44.0,45.0,40.1,31.0,89,66,43,0.00,40.00,11,3,31,0.14
2013-10-1,58.0,53.7,52.0,38.0,36.6,33.0,57,52,45,0.00,40.00,3,1,11,0.00
2013-10-2,57.0,44.3,34.0,37.0,34.6,31.0,93,71,38,0.00,40.00,8,1,21,0.14
2013-10-3,44.0,37.5,31.0,36.0,30.4,23.0,94,78,44,0.00,40.00,7,1,15,0.16
2013-10-4,40.0,33.0,28.0,29.0,25.7,23.0,92,75,56,0.00,40.00,5,1,13,0.08
2013-10-5,49.0,33.0,23.0,29.0,25.0,21.0,92,74,42,0.00,40.00,3,0,8,0.01
2013-10-6,63.0,39.8,25.0,34.0,28.3,22.0,92,68,29,0.00,40.00,3,0,8,0.01
2013-10-7,68.0,42.2,26.0,35.0,28.9,24.0,93,66,25,0.00,40.00,4,0,12,0.01
2013-10-8,54.0,42.7,33.0,32.0,28.3,25.0,86,60,34,0.00,40.00,6,1,13,0.00
2013-10-9,57.0,39.9,27.0,36.0,29.6,23.0,88,69,41,0.00,40.00,6,1,15,0.00
2013-10-10,55.0,41.8,32.0,39.0,33.8,29.0,92,75,46,0.00,40.00,8,0,14,0.00
2013-10-11,48.0,40.3,29.0,38.0,28.6,22.0,85,64,38,0.00,40.00,7,1,16,0.00
2013-10-12,45.0,34.0,25.0,36.0,27.1,-99.9,90,79,63,0.00,40.00,3,0,9,0.01
2013-10-13,43.0,37.0,33.0,40.0,34.4,31.0,94,90,82,0.00,40.00,3,0,7,0.41
2013-10-14,39.0,35.4,32.0,36.0,32.1,25.0,95,88,72,0.00,40.00,6,1,14,0.12
2013-10-15,43.0,32.0,23.0,27.0,24.1,20.0,98,74,49,0.00,40.00,6,1,12,0.01
2013-10-16,47.0,31.4,19.0,29.0,23.0,17.0,91,74,41,0.00,40.00,5,1,15,0.00
2013-10-17,44.0,33.8,25.0,29.0,24.3,21.0,90,70,42,0.00,40.00,6,1,17,0.00
2013-10-18,48.0,35.9,24.0,26.0,20.8,19.0,85,57,32,0.00,40.00,5,1,18,0.00
2013-10-19,43.0,28.8,22.0,28.0,20.7,18.0,84,72,54,0.00,40.00,2,0,6,0.00
2013-10-20,37.0,34.0,30.0,27.0,25.5,24.0,79,71,62,0.00,40.00,1,0,3,0.00
2013-10-31,39.0,34.9,33.0,32.0,29.8,27.0,92,81,70,0.00,40.00,7,2,22,0.10
2013-11-1,45.0,37.4,29.0,29.0,25.6,20.0,90,63,46,0.00,40.00,6,1,16,0.12
2013-11-2,52.0,36.2,26.0,31.0,25.5,-99.9,92,70,41,0.00,40.00,5,1,14,0.01
2013-11-3,43.0,30.6,23.0,32.0,21.2,14.0,88,69,47,0.00,40.00,9,2,25,0.01
2013-11-4,29.0,21.8,14.0,19.0,16.1,11.0,88,79,54,0.00,40.00,4,1,14,0.01
2013-11-5,30.0,21.7,14.0,21.0,14.6,11.0,87,74,53,0.00,40.00,7,1,15,0.01
2013-11-6,35.0,30.4,24.0,28.0,24.9,20.0,92,80,72,0.00,40.00,8,2,16,0.05
2013-11-7,40.0,36.1,33.0,36.0,32.3,27.0,93,86,71,0.00,40.00,4,1,12,0.25
2013-11-8,45.0,40.1,37.0,34.0,24.6,10.0,90,57,29,0.00,40.00,1,0,5,0.16
2013-11-9,51.0,38.5,28.0,29.0,23.2,-99.9,86,58,40,0.00,40.00,6,1,16,0.00
2013-11-10,57.0,37.4,23.0,33.0,26.2,20.0,90,68,34,0.00,40.00,4,0,14,0.01
2013-11-11,53.0,36.1,26.0,30.0,25.9,23.0,88,70,38,0.00,40.00,2,0,7,0.01
2013-11-12,50.0,33.2,20.0,29.0,24.2,17.0,91,72,40,0.00,40.00,2,0,4,0.00
2013-11-13,41.0,34.3,28.0,37.0,29.8,24.0,88,84,71,0.00,40.00,5,1,12,0.04
2013-11-14,44.0,35.2,26.0,32.0,26.3,22.0,94,72,45,0.00,40.00,6,1,14,0.01
2013-11-15,38.0,32.3,28.0,26.0,20.6,16.0,78,62,47,0.00,40.00,7,1,14,0.01
2013-11-16,30.0,26.6,23.0,27.0,21.7,-99.9,92,85,59,0.00,40.00,6,2,25,0.03
2013-11-17,30.0,24.0,19.0,22.0,17.8,14.0,84,77,68,0.00,40.00,4,1,15,0.02
2013-11-18,43.0,31.6,22.0,26.0,21.9,18.0,85,69,48,0.00,40.00,3,1,6,0.23
2013-11-19,37.0,34.9,33.0,34.0,31.8,27.0,92,88,74,0.00,40.00,4,1,15,0.12
2013-11-20,41.0,35.3,30.0,35.0,31.0,22.0,91,84,70,0.00,40.00,9,2,19,0.07
2013-11-21,31.0,25.1,14.0,23.0,11.0,0.0,79,57,26,0.00,40.00,10,4,20,0.01
2013-11-22,27.0,13.8,4.0,10.0,4.5,-3.0,85,67,43,0.00,40.00,3,0,6,0.00
2013-11-23,30.0,15.6,5.0,15.0,7.4,-99.9,94,75,51,0.00,40.00,3,0,5,0.00
2013-11-24,33.0,18.0,6.0,16.0,10.4,2.0,88,73,46,0.00,40.00,2,0,5,0.00
2013-12-1,39.0,34.2,33.0,35.0,30.8,29.0,93,88,77,0.00,40.00,8,3,23,0.26
2013-12-2,40.0,35.3,31.0,34.0,30.9,27.0,93,84,64,0.00,40.00,0,0,0,0.35
2013-12-3,31.0,17.4,7.0,26.0,9.2,-1.0,85,70,55,0.00,40.00,6,1,14,0.01
2013-12-4,11.0,2.9,-3.0,-2.0,-6.6,-12.0,80,64,48,0.00,40.00,7,1,13,0.00
2013-12-5,5.0,-2.9,-10.0,-2.0,-8.6,-15.0,81,76,67,0.00,40.00,2,0,5,0.00
2013-12-6,6.0,-1.9,-11.0,0.0,-7.6,-16.0,81,76,64,0.00,40.00,2,0,5,0.00
2013-12-7,8.0,4.1,1.0,3.0,-1.0,-4.0,82,78,73,0.00,40.00,1,0,3,0.00
2013-12-14,31.0,22.7,10.0,23.0,15.8,-99.9,88,78,67,0.00,40.00,6,2,20,0.00
2013-12-15,35.0,28.4,17.0,23.0,19.7,13.0,84,70,55,0.00,40.00,5,1,21,0.00
2013-12-16,37.0,19.6,11.0,20.0,12.8,7.0,87,76,49,0.00,40.00,3,1,6,0.02
2013-12-17,30.0,18.5,5.0,19.0,11.6,1.0,92,75,58,0.00,40.00,2,0,8,0.01
2013-12-18,45.0,33.6,24.0,21.0,19.1,16.0,72,56,36,0.00,40.00,7,1,17,0.01
2013-12-19,32.0,25.6,7.0,28.0,19.1,3.0,92,77,57,0.00,40.00,3,0,11,0.04
2013-12-20,23.0,12.9,4.0,14.0,6.9,0.0,86,77,62,0.00,40.00,5,1,15,0.01
2013-12-21,25.0,19.8,15.0,21.0,13.9,-99.9,87,81,73,0.00,40.00,3,0,7,0.02
2013-12-22,31.0,25.3,15.0,21.0,16.9,11.0,84,70,60,0.00,40.00,8,2,19,0.01
2013-12-23,35.0,31.6,28.0,31.0,26.8,20.0,91,82,70,0.00,40.00,9,3,21,0.01
2013-12-24,36.0,26.9,15.0,31.0,16.2,9.0,91,65,48,0.00,40.00,13,2,33,0.00
2013-12-25,23.0,8.3,-2.0,10.0,2.4,-6.0,84,77,58,0.00,40.00,2,0,6,0.00
2013-12-26,24.0,12.1,2.0,11.0,5.4,-2.0,86,75,56,0.00,40.00,2,0,4,0.00
2013-12-27,26.0,9.3,-2.0,13.0,3.6,-6.0,86,78,57,0.00,40.00,2,0,4,0.00
2013-12-28,6.0,5.8,5.0,3.0,2.2,2.0,86,85,84,0.00,40.00,0,0,3,0.00